This is the latest recevied weather packets stored in our database for station/object LRSB. If no packets are shown the sender has not sent any weather packets the latest 1 day(s).
| Time | Temp. | Humidity | Pressure | Rain* | Wind** | Luminosity | Snow |
|---|---|---|---|---|---|---|---|
| 1778014093 | 13.89° C | 55% | 1013 hPa | - | 1.34 m/s, 40° | - | - |
| 1778013190 | 13.89° C | 55% | 1013 hPa | - | 1.34 m/s, 40° | - | - |
| 1778010491 | 13.89° C | 55% | 1013 hPa | - | 1.34 m/s, 120° | - | - |
| 1778009591 | 13.89° C | 55% | 1013 hPa | - | 1.34 m/s, 120° | - | - |
| 1778008691 | 15° C | 51% | 1013 hPa | - | 2.68 m/s, 250° | - | - |
| 1778007791 | 15° C | 51% | 1013 hPa | - | 2.68 m/s, 250° | - | - |
| 1778006892 | 16.11° C | 48% | 1013 hPa | - | 3.13 m/s, 250° | - | - |
| 1778005992 | 16.11° C | 48% | 1013 hPa | - | 3.13 m/s, 250° | - | - |
| 1778005091 | 13.89° C | 59% | 1012 hPa | - | 3.13 m/s, 260° | - | - |
| 1778004191 | 13.89° C | 59% | 1012 hPa | - | 3.13 m/s, 260° | - | - |
| 1778003288 | 21.11° C | 33% | 1012 hPa | - | 1.34 m/s, 260° | - | - |
| 1778002391 | 21.11° C | 33% | 1012 hPa | - | 1.34 m/s, 260° | - | - |
| 1778001491 | 23.89° C | 29% | 1012 hPa | - | 2.24 m/s, 360° | - | - |
| 1778000591 | 23.89° C | 29% | 1012 hPa | - | 2.24 m/s, 360° | - | - |
| 1777999691 | 25° C | 19% | 1012 hPa | - | 2.24 m/s, 350° | - | - |
| 1777998791 | 25° C | 19% | 1012 hPa | - | 2.24 m/s, 350° | - | - |
| 1777994299 | 26.11° C | 18% | 1012 hPa | - | 2.68 m/s, 70° | - | - |
| 1777993391 | 26.11° C | 18% | 1012 hPa | - | 2.68 m/s, 70° | - | - |
| 1777992491 | 26.11° C | 20% | 1013 hPa | - | 2.24 m/s, 300° | - | - |
| 1777991591 | 26.11° C | 20% | 1013 hPa | - | 2.24 m/s, 300° | - | - |
| 1777990691 | 26.11° C | 20% | 1013 hPa | - | 3.13 m/s, 30° | - | - |
| 1777989791 | 26.11° C | 20% | 1013 hPa | - | 3.13 m/s, 30° | - | - |
| 1777988930 | 26.11° C | 20% | 1013 hPa | - | 2.24 m/s, 70° | - | - |
| 1777987991 | 26.11° C | 20% | 1013 hPa | - | 2.24 m/s, 70° | - | - |
| 1777985291 | 26.11° C | 21% | 1014 hPa | - | 3.13 m/s, 90° | - | - |
* Rain since midnight (hover to see other rain measurements)
** Current wind speed in m/s (hover to see current wind gust speed)